CAPE
0 0 0 0 0 0 0 0 0 0 0 0 0 0 0 0 0 0 0 0 0 0 0 0 0 0 0 0 0 0 0 0 0 0 0 0 0 0 0 0 0 0 0
0 0 0 0 0 0 0 0 0 0 0 0 0 0 0 0 0 0 0 0 0 0 0 0 0 0 0 0 0 0 0 0 0 0 0 0 0 0 0 0 0 0 0
0 0 0 0 0 0 0 0 0 0 0 0 0 0 0 0 0 0 0 0 0 0 0 0 0 0 0 0 0 0 0 0 0 0 0 0 0 0 0 0 0 0 0
0 0 0 0 0 0 0 0 0 0 0 0 0 0 0 0 0 0 0 0 0 0 0 0 0 0 0 0 0 0 0 0 0 0 0 0 0 0 0 0 0 0 0
0 0 0 0 0 0 0 0 0 0 0 0 0 0 0 0 0 0 0 0 0 0 0 0 0 0 0 0 0 0 0 0 0 0 0 0 0 0 0 0 0 0 0
0 0 0 0 0 0 0 0 0 0 0 0 0 0 0 0 0 0 0 0 0 0 0 0 0 0 0 0 0 0 0 0 0 0 0 0 0 0 0 0 0 0 0
0 0 0 0 0 0 0 0 0 0 0 0 0 0 0 0 0 0 0 0 0 0 0 0 0 0 0 0 0 0 0 0 0 0 0 0 0 0 0 0 0 0 0
0 0 0 0 0 0 0 0 0 0 0 0 0 0 0 0 0 0 0 0 0 0 0 0 0 0 0 0 0 0 0 0 0 0 0 0 0 0 0 0 0 0 0
0 0 0 0 0 0 0 0 0 0 0 0 0 0 0 0 0 0 0 0 0 0 0 0 0 0 0 2 0 0 0 0 0 0 0 0 0 1 0 0 1 3 1
0 0 0 0 0 0 0 0 0 0 0 0 0 0 0 0 0 2 0 0 0 0 0 0 0 0 1 6 0 0 0 0 0 0 0 0 0 0 0 0 0 0 1
0 0 0 0 0 0 0 0 0 0 0 0 0 0 0 0 2 12 1 0 0 0 0 0 0 3 3 6 5 0 0 0 0 0 0 0 0 0 0 0 0 1 1
0 0 0 0 0 0 0 0 0 0 0 0 0 0 0 0 4 13 7 1 0 0 0 0 0 1 7 9 7 8 5 1 0 0 1 1 0 0 0 0 0 0 0
0 0 0 0 0 0 0 0 0 0 0 0 0 0 0 0 0 22 16 6 5 1 0 0 0 1 7 8 17 20 0 0 1 4 1 0 0 0 0 0 0 0 0
0 0 0 0 1 0 1 0 2 2 1 1 2 1 1 0 0 0 0 7 4 7 5 0 2 2 4 2 0 3 0 0 0 0 0 0 0 0 0 0 0 0 0
0 0 1 1 0 1 2 4 2 2 4 3 4 4 1 0 0 0 1 3 1 1 1 0 0 0 0 0 0 0 0 0 0 0 0 0 0 0 0 0 0 0 0
0 0 0 3 3 2 2 2 10 5 8 6 5 2 2 3 3 3 0 1 2 8 0 0 0 0 0 0 0 0 0 0 0 0 0 0 0 0 0 0 0 0 0
2 0 0 0 0 1 1 0 0 1 3 3 8 6 1 1 3 2 2 6 17 13 1 0 0 0 0 0 0 0 0 0 0 0 0 0 0 0 0 0 0 0 0
1 0 2 1 1 1 0 0 0 0 1 1 0 0 0 0 0 1 1 1 0 0 0 0 1 0 0 0 0 0 0 0 0 0 0 0 0 0 0 0 0 0 0
0 0 0 0 0 0 0 0 0 0 0 1 1 0 0 5 3 2 1 0 0 0 0 0 0 0 0 0 0 0 0 0 0 0 0 0 0 0 0 0 0 0 0
0 0 0 0 0 0 0 0 0 0 1 1 1 0 0 0 1 0 0 0 0 0 0 0 0 0 0 0 0 0 0 0 0 0 0 0 0 0 0 0 0 0 0
0 0 0 0 0 0 0 0 0 0 0 0 0 0 0 0 0 0 0 0 0 0 0 0 0 0 0 0 0 0 0 0 0 0 0 0 0 0 0 0 0 0 0
0 0 0 0 0 0 0 0 0 0 0 0 0 0 1 0 0 0 0 0 0 0 0 0 0 0 0 0 0 0 0 0 0 0 0 0 0 0 0 0 0 0 0
0 0 0 0 0 0 0 0 0 0 0 0 0 0 0 0 0 0 0 0 0 0 0 0 0 0 0 0 0 0 0 0 0 0 0 0 0 0 0 0 0 0 0
0 0 0 0 0 0 0 0 0 0 0 0 0 0 0 0 0 0 0 0 0 0 0 0 0 0 0 0 0 0 0 0 0 0 0 0 0 0 0 0 0 0 0
0 0 0 0 0 0 0 0 0 0 0 0 0 0 0 0 0 0 0 0 0 0 0 0 0 0 0 0 0 0 0 0 0 0 0 0 0 0 0 0 0 0 0
0 0 0 0 0 0 0 0 0 0 0 0 0 0 0 0 0 0 0 0 0 0 0 0 0 0 0 0 0 0 0 1 0 0 0 0 0 0 0 0 0 0 0
CIN
0 0 0 0 0 0 0 0 0 0 0 0 0 0 0 0 0 0 0 0 0 0 0 0 0 0 0 0 0 0 0 0 0 0 0 0 0 0 0 0 0 0 0
0 0 0 0 0 0 0 0 0 0 0 0 0 0 0 0 0 0 0 0 0 0 0 0 0 0 0 0 0 0 0 0 0 0 0 0 0 0 0 0 0 0 0
0 0 0 0 0 0 0 0 0 0 0 0 0 0 0 0 0 0 0 0 0 0 0 0 0 0 0 0 0 0 0 0 0 0 0 0 0 0 0 0 0 0 0
0 0 0 0 0 0 0 0 0 0 0 0 0 0 0 0 0 0 0 0 0 0 0 0 0 0 0 0 0 0 0 0 0 0 0 0 0 0 0 0 0 0 0
0 0 0 0 0 0 0 0 0 0 0 0 0 0 0 0 0 0 0 0 0 0 0 0 0 0 0 0 0 0 0 0 0 0 0 0 0 0 0 0 0 0 0
0 0 0 0 0 0 0 0 0 0 0 0 0 0 0 0 0 0 0 0 0 0 0 0 0 0 0 0 0 0 0 0 0 0 0 0 0 0 0 0 0 0 0
0 0 0 0 0 0 0 0 0 0 0 0 0 0 0 0 0 0 0 0 0 0 0 0 0 0 0 0 0 0 0 0 0 0 0 0 0 0 0 0 0 0 0
0 0 0 0 0 0 0 0 0 0 0 0 0 0 0 0 0 0 0 0 0 0 0 0 0 0 0 0 0 0 0 0 0 0 0 0 0 0 0 0 0 0 0
0 0 0 0 0 0 0 0 0 0 0 0 0 0 0 0 0 0 0 0 0 0 0 0 0 0 0 0 0 0 0 0 0 0 0 0 0 0 -0 0 -1 -0 -1
0 0 0 0 0 0 0 0 0 0 0 0 0 0 0 0 0 0 0 0 0 0 0 0 0 0 0 0 0 0 0 0 0 0 0 0 0 0 0 0 0 -0 -0
0 0 0 0 0 0 0 0 0 0 0 0 0 0 0 0 -0 0 0 0 0 0 0 0 0 0 0 0 0 0 0 0 0 0 0 0 0 0 0 0 -1 -0 -0
0 0 0 0 0 0 0 0 0 0 0 0 0 0 0 0 -0 0 0 0 0 0 0 0 0 0 0 0 0 0 0 0 0 -0 -0 -0 -0 -0 0 0 0 0 0
0 0 0 0 0 0 0 0 0 0 0 0 0 0 0 0 -0 0 0 0 0 -0 -0 -1 0 0 0 0 0 0 0 -0 0 0 -1 -0 0 0 0 0 0 0 0
0 0 0 0 0 -0 -0 -0 0 0 0 0 0 0 0 0 0 -0 -0 -0 -1 -0 -0 -0 0 0 0 0 0 0 -0 0 -0 0 0 0 0 0 0 0 0 0 0
0 -0 0 0 0 -0 -0 0 0 0 0 0 0 0 0 0 -0 0 -0 -0 -0 -1 -1 0 0 0 0 0 0 0 0 0 0 0 0 0 0 0 0 0 0 0 0
0 -0 0 0 0 0 0 0 0 0 0 0 0 0 0 0 0 0 0 0 0 0 0 0 0 0 0 0 0 0 0 0 0 0 0 0 0 0 0 0 0 0 0
0 0 0 0 0 0 0 0 0 0 0 0 0 0 0 0 0 0 0 0 0 0 0 0 0 0 0 0 0 0 0 0 0 0 0 0 0 0 0 0 0 0 0
0 -0 0 0 0 0 0 0 0 0 0 0 0 0 0 0 -0 0 0 0 0 0 -0 -0 -0 -0 0 0 0 0 0 0 0 0 0 0 0 0 0 0 0 0 0
0 0 0 0 0 0 0 0 0 0 0 0 0 0 -0 0 0 0 0 0 0 0 0 0 0 0 0 0 0 0 0 0 0 0 0 0 0 0 0 0 0 0 0
0 0 0 0 0 0 0 0 0 0 -0 -0 0 0 0 0 0 0 0 0 0 0 0 0 0 0 0 0 0 0 0 0 0 0 0 0 0 0 0 0 0 0 0
0 0 0 0 0 0 0 0 0 0 -0 0 0 0 0 0 0 0 0 0 0 0 0 0 0 0 0 0 0 0 0 0 0 0 0 0 0 0 0 0 0 0 0
0 0 0 0 0 0 0 0 0 0 0 0 0 0 0 0 0 0 0 0 0 0 0 0 0 0 0 0 0 0 0 0 0 0 0 0 0 0 0 0 0 0 0
0 0 0 0 0 0 0 0 0 0 0 0 0 0 0 0 0 0 0 0 0 0 0 0 0 0 0 0 0 0 0 0 0 0 0 0 0 0 0 0 0 0 0
0 0 0 0 0 0 0 0 0 0 0 0 0 0 0 0 0 0 0 0 0 0 0 0 0 0 0 0 0 0 0 0 0 0 0 0 0 0 0 0 0 0 0
0 0 0 0 0 0 0 0 0 0 0 0 0 0 0 0 0 0 0 0 0 0 0 0 0 0 0 0 0 0 0 0 0 0 0 0 0 0 0 0 0 0 0
0 0 0 0 0 0 0 0 0 0 0 0 0 0 0 0 0 0 0 0 0 0 0 0 0 0 0 0 0 0 0 0 0 0 0 0 0 0 0 0 0 0 0
Wind_Speed
10 10 11 11 13 12 11 10 10 9 10 9 9 11 13 12 11 10 9 10 11 10 10 11 10 9 6 5 4 3 3 1 2 3 3 4 4 5 5 6 6 5 5
10 11 12 12 11 12 12 12 11 9 7 10 10 11 10 10 12 12 12 12 13 13 12 12 12 8 9 7 5 4 3 2 2 4 3 3 5 5 4 4 4 4 5
10 11 11 13 13 13 12 11 10 10 10 9 10 11 10 11 11 8 10 11 12 13 14 14 13 12 9 6 6 5 4 3 3 2 3 2 3 3 4 4 5 5 5
10 11 13 15 15 13 13 13 12 12 12 11 11 11 11 11 9 8 8 9 11 11 11 11 13 12 11 9 7 6 5 5 3 2 3 3 3 3 2 3 4 4 4
11 12 14 12 12 12 12 10 10 11 10 11 11 9 9 10 10 13 11 10 11 11 10 11 9 9 12 11 8 7 7 5 5 4 3 3 3 3 3 2 4 5 6
13 14 12 11 9 8 7 9 10 9 9 9 10 11 11 8 17 18 14 11 10 12 11 9 9 10 12 13 11 11 10 8 7 4 4 5 6 3 3 4 4 5 5
12 9 7 7 8 8 8 9 10 10 9 10 10 10 11 10 21 20 16 8 10 10 11 11 8 5 8 8 11 14 11 13 9 5 6 7 4 4 3 5 6 7 8
8 7 7 8 9 9 10 10 9 9 10 10 10 10 9 9 23 22 17 11 8 9 10 11 11 10 8 8 8 9 8 8 9 7 9 8 6 4 5 6 6 8 9
7 7 7 8 8 9 10 10 9 8 8 8 8 9 9 8 23 22 17 10 9 9 8 10 10 9 13 16 9 8 7 8 10 16 18 17 17 17 15 6 7 8 10
5 6 7 7 7 8 8 9 7 7 7 6 6 7 8 8 22 24 13 8 8 8 8 6 11 10 17 18 10 7 7 8 6 5 4 9 11 8 12 7 5 8 8
3 4 5 6 7 7 7 6 7 7 7 7 8 7 8 9 15 22 18 9 9 8 8 8 7 16 14 17 18 10 12 6 8 7 5 5 5 5 4 3 2 4 5
3 4 4 5 5 6 8 7 8 8 8 8 8 7 6 8 15 22 23 15 14 9 10 8 7 14 15 17 16 18 19 15 5 5 6 6 5 3 3 2 1 2 3
6 5 5 6 5 6 8 9 8 7 7 7 6 6 6 6 6 15 19 19 17 8 5 7 10 14 16 15 18 16 11 5 5 5 5 3 3 3 3 0 2 2 3
7 7 6 6 6 5 5 5 6 6 5 5 5 5 5 5 5 5 7 10 13 10 6 5 7 9 11 8 5 8 4 3 3 3 2 3 3 2 1 1 1 1 1
7 7 7 6 6 5 5 4 4 4 4 4 3 4 6 6 6 10 8 6 6 7 5 3 4 4 5 5 4 4 4 3 2 2 2 2 1 0 0 1 1 1 2
6 5 5 6 5 4 5 5 8 7 7 6 6 5 4 6 14 16 16 16 15 13 3 4 4 4 5 5 5 4 3 2 2 2 2 2 2 1 1 1 0 1 1
6 6 5 5 5 4 4 5 7 10 16 14 8 5 4 6 10 13 15 15 13 10 3 3 3 4 4 3 2 3 4 3 4 2 2 2 1 1 2 2 1 1 1
7 7 5 5 5 5 4 5 5 4 4 5 9 7 5 7 6 6 7 8 3 2 1 2 3 1 1 3 2 2 3 4 3 3 2 2 2 1 2 2 1 1 1
5 5 5 5 5 6 5 4 4 5 5 4 3 8 11 15 16 15 12 3 3 3 2 2 2 2 2 2 3 2 2 3 2 2 2 2 2 2 2 1 1 2 1
7 10 7 5 5 6 5 5 4 5 4 3 4 4 3 1 4 4 5 4 3 3 2 3 2 2 2 2 3 3 3 2 3 2 2 3 3 2 2 3 2 2 3
5 6 8 7 7 6 6 6 5 4 4 5 5 4 6 5 4 4 3 3 3 3 2 2 2 2 2 1 2 2 2 3 3 3 2 2 3 2 3 2 2 3 3
6 6 6 7 6 6 6 5 5 5 5 4 4 4 8 4 3 3 3 3 3 2 2 2 1 2 2 2 2 3 3 3 3 3 3 3 3 3 2 2 2 2 3
6 7 7 7 6 7 6 6 5 5 5 5 4 3 3 3 3 2 2 2 2 1 2 1 0 1 1 1 1 2 2 3 3 3 3 3 3 3 3 3 3 3 2
8 8 7 7 6 6 6 5 5 5 4 3 2 2 2 2 2 2 1 1 1 1 1 2 2 3 3 3 3 3 2 1 1 3 4 3 3 3 2 2 3 3 3
8 7 6 6 6 5 4 3 3 2 2 2 2 1 1 0 1 1 1 1 1 2 2 2 2 5 7 7 6 6 6 8 6 5 3 4 4 5 4 3 3 3 4
6 5 5 4 3 3 3 3 2 2 2 2 1 1 1 1 1 2 2 2 2 3 4 3 4 8 7 6 8 9 9 10 8 8 6 5 6 5 4 5 6 3 4
Wind_Direction
215 214 218 219 217 210 212 205 203 183 164 170 176 182 187 175 169 174 175 171 168 156 149 147 139 139 135 129 118 110 100 105 118 56 69 136 178 217 209 210 231 253 273
215 218 216 215 213 216 214 204 192 178 154 176 182 182 183 179 173 175 175 174 165 159 153 144 146 143 137 138 132 131 132 100 111 135 152 174 206 208 233 255 245 236 254
222 221 221 211 207 212 211 203 185 175 170 167 174 180 179 182 176 173 175 169 166 163 157 152 150 146 142 143 144 142 130 145 109 126 153 178 215 210 235 247 251 255 255
214 220 223 219 205 205 205 197 185 175 169 177 183 185 183 179 174 159 163 166 162 157 154 152 153 155 151 152 153 147 150 143 131 169 203 218 212 194 181 259 273 239 278
219 221 226 224 211 203 202 189 182 179 175 177 175 179 174 175 176 167 166 165 155 148 143 141 151 147 149 158 150 158 169 148 166 191 211 219 222 217 214 220 269 283 278
214 222 219 215 199 200 184 176 176 175 168 166 178 177 178 187 183 178 163 160 153 149 148 143 140 142 156 165 166 189 183 170 183 184 209 222 237 221 217 237 261 276 299
215 212 197 187 178 177 171 173 181 176 165 177 179 177 185 178 178 177 162 157 150 155 152 151 142 147 152 158 190 222 208 207 205 187 227 232 251 224 236 263 259 262 267
208 206 190 183 183 175 173 181 180 174 175 178 184 184 178 179 180 179 158 150 149 155 161 157 152 156 174 161 179 207 207 206 217 222 233 240 240 261 254 256 269 277 278
206 205 196 191 183 178 185 184 178 169 173 177 175 174 176 170 182 178 157 150 152 155 149 157 151 162 185 187 198 202 205 222 222 229 242 248 255 263 266 274 267 274 284
203 196 175 175 175 184 179 171 166 166 161 143 145 159 155 157 177 180 153 151 150 150 161 162 169 178 188 195 202 196 223 227 202 225 246 259 264 263 269 260 274 272 280
134 130 137 155 164 164 152 149 144 137 131 135 135 140 139 154 170 175 170 160 170 165 173 189 196 207 194 204 207 209 225 212 225 225 220 227 224 222 215 207 213 271 288
88 106 119 124 131 137 135 131 137 136 134 137 133 133 147 164 186 189 187 187 181 173 185 195 199 208 209 213 218 227 233 239 213 218 227 230 228 168 131 99 36 299 296
73 74 93 100 111 126 133 136 134 139 143 152 160 162 165 166 187 193 191 196 200 191 177 190 180 196 211 226 234 235 236 226 213 214 221 214 105 100 98 88 215 234 250
92 95 94 100 106 107 114 135 134 144 148 152 168 168 158 157 168 184 190 204 205 202 186 187 200 199 207 211 208 232 223 202 200 189 127 103 98 134 180 162 246 343 286
97 99 97 99 105 113 97 107 109 106 140 153 165 167 162 172 180 180 183 189 193 202 156 166 198 204 202 197 173 173 147 137 154 146 142 145 141 104 237 75 70 285 250
96 95 100 112 107 95 91 88 85 114 138 155 163 174 159 157 166 182 197 200 201 188 151 182 191 191 194 178 171 172 154 137 145 126 109 133 201 202 177 69 212 220 265
117 108 104 100 101 106 103 102 98 67 67 57 82 115 116 144 162 184 201 213 207 183 160 187 214 193 190 194 158 145 160 118 85 104 190 187 156 153 143 220 236 231 252
95 100 108 114 118 111 96 91 102 102 94 74 55 63 75 96 117 149 168 123 100 166 147 162 229 234 132 133 125 129 119 129 183 186 156 141 132 173 201 221 228 207 255
75 77 80 75 71 78 78 78 91 98 96 102 97 62 72 82 78 68 70 84 112 101 70 76 62 103 113 101 112 124 156 172 166 133 124 125 172 180 214 211 226 244 231
56 59 70 78 74 78 77 86 81 79 93 101 88 73 54 43 65 51 53 55 62 68 79 99 98 86 100 143 148 145 153 140 137 147 172 163 184 180 199 192 199 228 218
60 57 62 62 58 60 65 68 69 78 80 71 71 59 59 56 68 61 66 59 49 53 65 65 97 104 112 117 132 151 178 179 167 168 165 173 182 189 199 238 214 200 210
69 64 58 64 65 62 64 62 61 69 72 84 85 46 66 67 70 67 64 64 68 55 40 53 111 134 161 163 189 195 186 192 169 176 181 178 175 189 205 202 208 217 224
58 68 64 61 59 62 60 55 55 58 60 58 57 66 47 53 51 49 59 78 106 103 105 81 321 161 149 233 263 240 214 202 190 164 175 175 182 201 184 202 195 197 226
55 57 60 60 51 53 53 56 68 61 55 55 51 51 43 47 29 36 24 33 108 161 161 182 209 222 211 204 199 206 222 259 157 169 172 181 188 192 209 211 205 211 212
52 54 53 54 51 51 65 63 72 66 66 48 45 39 55 354 284 257 253 201 222 261 239 209 226 234 228 221 223 221 215 221 196 187 169 189 204 204 190 184 203 209 212
48 51 52 53 56 46 38 28 34 29 19 17 2 333 312 303 294 289 266 229 223 224 231 228 231 234 237 238 232 229 229 228 219 220 194 197 204 213 207 202 207 199 209